TIME,DELAY(SENSOR),PRES,OXYGEN,RAWTEMP,T(OPTODE),TCPHASE,FLUOR,BETA(BETA700),BETA(BETA412),BETA(BETA440),CDOM,C(CSC),ED(ED412.20),ED(ED444.00),ED(ED489.60),ED(ED554.30),LU(LU412.10),LU(LU443.90),LU(LU489.70),LU(LU554.70),COMP,TILTX,TILTY,CHECK
1372220296,5811,866.1799926757812000,31.1321907043457030,563.1807861328125000,4.3872761726379395,56.9372901916503900,55,98,99,78,79,15615,0,0,0,0,2147118930,2147772717,2147567890,2147568137,2663,2,13,15087
1372223892,5809,937.2700195312500000,35.2243309020996100,571.2122802734375000,4.1378798484802250,56.3561897277832000,54,96,100,78,78,15616,0,0,0,0,2147118747,2147768640,2147572205,2147566262,435,3,13,41583
1372227492,5812,961.7000122070312000,30.8599300384521500,572.0374145507812000,4.1122298240661620,57.0665702819824200,55,96,99,76,79,15614,0,0,0,0,2147121435,2147770742,2147568795,2147565997,193,2,13,15397
1372231092,5810,979.7000122070312000,32.5357589721679700,575.2407836914062000,4.0125851631164550,56.8253288269043000,55,97,99,77,80,15615,0,0,0,0,2147122313,2147770605,2147571200,2147565531,46,3,13,35413
1372234692,5811,989.0399780273438000,29.2436599731445300,575.6486206054688000,3.9998910427093506,57.3699989318847660,55,97,99,77,80,15611,0,0,0,0,2147121865,2147768502,2147568987,2147564891,47,2,13,13045
1372238292,5811,993.0100097656250000,30.1654891967773440,575.4481201171875000,4.0061302185058590,57.2127494812011700,55,96,99,77,79,15616,0,0,0,0,2147123337,2147769563,2147570038,2147569014,3532,2,13,7364
1372241892,5810,994.6500244140625000,29.2989597320556640,575.8732299804688000,3.9929010868072510,57.3613700866699200,55,96,100,77,78,15612,0,0,0,0,2147123337,2147773357,2147571492,2147566957,3572,2,13,27445
1372245492,5810,991.5000000000000000,25.0844497680664060,575.6646728515625000,3.9993898868560790,58.0816612243652340,54,97,100,76,80,15612,0,0,0,0,2147121874,2147772489,2147570139,2147567515,89,2,13,48351
1372249092,5809,991.8400268554688000,33.6302680969238300,575.8572998046875000,3.9933950901031494,56.6550102233886700,55,98,100,77,79,15611,0,0,0,0,2147122624,2147768000,2147570660,2147564489,42,2,13,8461
1372252692,5809,996.8300170898438000,33.6134910583496100,575.2830200195312000,4.0112709999084470,56.6573104858398440,56,95,99,77,78,15612,0,0,0,0,2147124928,2147768219,2147566656,2147565933,237,2,13,65127
1372256292,5811,1003.7199707031250000,32.3082199096679700,575.8659057617188000,3.9931280612945557,56.8723793029785160,54,97,101,77,81,15613,0,0,0,0,2147116589,2147772864,2147570267,2147566509,149,2,13,53814
1372259892,5810,1011.9400024414062000,36.2763404846191400,575.3369750976562000,4.0095901489257810,56.2367591857910160,54,98,100,77,78,15608,0,0,0,0,2147118107,2147771840,2147568694,2147562944,2977,2,13,65301
1372263492,5809,1004.9000244140625000,31.1142692565917970,575.4417114257812000,4.0063300132751465,57.0572509765625000,55,96,100,77,80,15611,0,0,0,0,2147121133,2147772800,2147571273,2147567451,136,2,13,23491
1372267092,5810,1003.3599853515625000,32.5969009399414060,575.9276123046875000,3.9912090301513670,56.8202095031738300,55,97,99,78,80,15609,0,0,0,0,2147121078,2147772132,2147573888,2147564772,74,2,13,7875
1372270692,5812,1010.4799804687500000,36.7709007263183600,575.9387817382812000,3.9908599853515625,56.1660499572753900,54,113,99,77,79,15606,0,0,0,0,2147118683,2147769782,2147562797,2147569033,3462,2,13,33057
1372274292,5812,1001.5999755859375000,31.3462390899658200,575.4802856445312000,4.0051307678222660,57.0195503234863300,55,97,99,78,79,15604,0,0,0,0,2147122258,2147766912,2147571510,2147565284,119,2,13,49330
1372277892,5810,1011.2600097656250000,37.4794998168945300,575.9371948242188000,3.9909100532531740,56.0567893981933600,54,97,98,77,79,15603,0,0,0,0,2147123492,2147769554,2147568585,2147567588,3554,2,13,24067
1372281492,5814,1013.1699829101562000,37.1654701232910160,575.9251708984375000,3.9912829399108887,56.1092910766601560,54,96,99,77,79,15605,0,0,0,0,2147120795,2147768740,2147569526,2147567003,3585,2,13,18170
1372285092,5808,1011.3300170898438000,36.9086418151855500,575.9309082031250000,3.9911038875579834,56.1463203430175800,55,97,100,78,79,15602,0,0,0,0,2147124873,2147767652,2147568640,2147566372,121,2,13,8330
1372288692,5809,1001.5200195312500000,31.1425800323486330,575.9993286132812000,3.9889760017395020,57.0626182556152340,54,97,100,78,79,15603,0,0,0,0,2147120941,2147766445,2147566070,2147566528,3193,3,13,21941
1372292292,5812,1007.0200195312500000,24.6870403289794920,576.0338745117188000,3.9879000186920166,58.1534690856933600,55,97,100,78,79,15603,0,0,0,0,2147120429,2147770285,2147566848,2147564333,3409,2,13,1708
1372295892,5810,1004.4400024414062000,32.5591201782226560,576.5015869140625000,3.9733409881591797,56.8327293395996100,59,96,100,78,80,15603,0,0,0,0,2147120054,2147769362,2147570084,2147564169,64,2,13,56078
1372299492,5807,1001.4600219726562000,28.1718406677246100,576.0502929687500000,3.9873890876770020,57.5523490905761700,55,97,100,77,81,15601,0,0,0,0,2147121444,2147770514,2147570861,2147564800,190,2,13,31108
1372303092,5809,1007.3200073242188000,28.5606403350830080,575.7719726562500000,3.9960520267486572,57.4892196655273440,55,98,99,77,81,15599,0,0,0,0,2147121462,2147767488,2147570240,2147566555,143,2,13,41190
1372306692,5813,1007.5300292968750000,29.3155498504638670,576.2039184570312000,3.9826068878173830,57.3671607971191400,55,98,99,77,79,15601,0,0,0,0,2147125129,2147774692,2147566857,2147566272,28,2,13,56231
1372310292,5810,1002.6799926757812000,27.7547607421875000,575.8441162109375000,3.9938070774078370,57.6217308044433600,56,98,100,77,81,15601,0,0,0,0,2147121993,2147771346,2147567168,2147567040,3290,2,13,24206
1372313892,5810,1005.2600097656250000,23.4289207458496100,576.5394287109375000,3.9721639156341553,58.3810806274414060,55,96,98,77,79,15600,0,0,0,0,2147123053,2147770560,2147569097,2147565732,138,3,13,39728
1372317492,5809,1006.7299804687500000,27.2413501739501950,576.4923706054688000,3.9736270904541016,57.7132492065429700,55,97,99,77,80,15597,0,0,0,0,2147119442,2147772123,2147567305,2147566866,3566,2,13,602
1372321092,5808,1014.5399780273438000,37.0857887268066400,575.4342041015625000,4.0065650939941410,56.1143989562988300,56,97,99,77,80,15599,0,0,0,0,2147121088,2147766610,2147568603,2147566235,36,3,13,55487
1372324692,5810,1005.5800170898438000,32.9155082702636700,576.5551147460938000,3.9716739654541016,56.7812805175781250,55,107,99,78,79,15597,0,0,0,0,2147119908,2147770715,2147568694,2147565248,3343,2,13,32276
1372328292,5808,1006.1300048828125000,33.0523109436035160,576.5457153320312000,3.9719679355621340,56.7526588439941400,55,96,98,77,79,15597,0,0,0,0,2147118829,2147765833,2147570550,2147566509,115,2,13,22970
1372331892,5807,1006.2000122070312000,32.1589889526367200,576.5841064453125000,3.9707720279693604,56.8997383117675800,55,97,99,77,79,15599,0,0,0,0,2147121042,2147770980,2147569261,2147567497,3594,2,13,12996
1372335492,5812,1006.0399780273438000,34.5810089111328100,577.0139160156250000,3.9573900699615480,56.5215682983398440,55,97,99,77,79,15598,0,0,0,0,2147119003,2147772041,2147565604,2147565613,33,3,13,33020
1372339092,5813,1009.2700195312500000,25.2241802215576170,577.1776123046875000,3.9522950649261475,58.0678291320800800,55,96,98,78,79,15597,0,0,0,0,2147120292,2147765357,2147568530,2147567213,99,3,13,44676
1372342692,5810,1012.6699829101562000,32.7882003784179700,576.7500000000000000,3.9656069278717040,56.7977104187011700,54,97,99,78,81,15597,0,0,0,0,2147120493,2147770596,2147569819,2147566153,171,2,13,31416
1372346292,5810,1014.2100219726562000,33.7153587341308600,576.7808227539062000,3.9646470546722410,56.6550292968750000,56,96,98,77,80,15595,0,0,0,0,2147118619,2147773010,2147570651,2147566025,3160,2,13,33397
1372349892,5809,1018.0800170898438000,32.1675987243652340,576.7514038085938000,3.9655630588531494,56.8999595642089840,55,98,100,77,80,15595,0,0,0,0,2147122011,2147768694,2147567835,2147568246,150,2,13,3496
1372353492,5811,1015.7000122070312000,36.2406196594238300,576.4863281250000000,3.9738180637359620,56.2566490173339840,56,98,99,77,80,15593,0,0,0,0,2147119515,2147770450,2147567277,2147569673,3415,3,13,6553
1372357092,5810,1012.0000000000000000,32.4367294311523440,576.2446289062500000,3.9813389778137207,56.8479995727539060,55,95,99,77,80,15593,0,0,0,0,2147121389,2147770176,2147569883,2147564150,63,2,13,31314
1372360692,5811,1012.3900146484375000,29.8079795837402340,576.7305297851562000,3.9662148952484130,57.2870597839355500,54,97,100,78,80,15590,0,0,0,0,2147122066,2147769472,2147568411,2147566564,101,2,13,47114
1372363256,5811,1010.7800292968750000,26.1226406097412100,576.5454711914062000,3.9719729423522950,57.9067611694335940,56,96,98,77,80,15592,0,0,0,0,2147121142,2147771410,2147566409,2147562340,3582,2,13,13890
